{"data":{"norad_id":51739,"intl_designator":"2022-016AB","name":"STARLINK-3516","alt_names":[],"object_type":"PAYLOAD","status":"ACTIVE","operator":null,"country":"US","launch_date":"2022-02-21","launch_site_code":"AFETR","launch_vehicle":null,"mission":null,"orbit_class":"UNKNOWN","rcs_meters":null,"size_class":null,"mass_kg":null,"dimensions":null,"purposes":["comms"],"wikipedia_slug":null,"has_3d_model":false,"image_url":null,"decayed_at":null,"tle_current":{"epoch":"2026-05-24T19:47:19.354848Z","epoch_age_seconds":84243,"freshness":"FRESH","line1":"1 51739U 22016AB  26144.82452957 -.00000402  00000+0 -71902-5 0  9996","line2":"2 51739  53.2135 337.3388 0001150  86.0716 274.0407 15.08835761235059","mean_motion":15.08835761,"eccentricity":0.000115,"inclination_deg":53.2135,"raan_deg":337.3388,"arg_perigee_deg":86.0716,"mean_anomaly_deg":274.0407,"bstar":-7.1902e-6,"rev_number":23505,"period_min":95.43782280489,"perigee_km":538.96078818682,"apogee_km":540.55190365638,"semimajor_km":6917.8933459216,"source":"CELESTRAK","updated_at":"2026-05-25T13:38:16.924755Z"}}}